START_TIME,STEP,MOV.,M34,t_acc.,L5,t_acc.,L18,t_acc.,L14,t_acc.
1979-07-29 00:00:23.850 ,0,0,0.,12.0,0.,12.0,0.,12.0,0.,12.0
1979-07-29 00:00:35.850 ,0,0,0.,12.0,0.,12.0,0.,12.0,0.,12.0
1979-07-29 00:00:47.850 ,1,1,0.,12.0,0.,12.0,0.,12.0,0.,12.0
1979-07-29 00:00:59.850 ,1,1,0.,12.0,0.,12.0,0.,12.0,0.,12.0
1979-07-29 00:01:11.850 ,1,0,0.,12.0,0.,12.0,0.,12.0,1.,12.0
1979-07-29 00:01:23.850 ,1,0,0.,12.0,0.,12.0,0.,12.0,0.,12.0
1979-07-29 00:01:35.850 ,2,1,0.,12.0,0.,12.0,0.,12.0,0.,12.0
1979-07-29 00:01:47.850 ,2,1,0.,12.0,0.,12.0,0.,12.0,0.,12.0
1979-07-29 00:01:59.850 ,2,0,0.,12.0,0.,12.0,0.,12.0,0.,12.0
1979-07-29 00:02:11.850 ,2,0,0.,12.0,0.,12.0,0.,12.0,0.,12.0
1979-07-29 00:02:23.850 ,3,1,0.,12.0,0.,12.0,0.,12.0,0.,12.0
1979-07-29 00:02:35.850 ,3,1,0.,12.0,0.,12.0,0.,12.0,0.,12.0
1979-07-29 00:02:47.850 ,3,0,0.,12.0,0.,12.0,0.,12.0,0.,12.0
1979-07-29 00:02:59.850 ,3,0,0.,12.0,0.,12.0,0.,12.0,0.,12.0
1979-07-29 00:03:11.850 ,4,1,0.,12.0,0.,12.0,0.,12.0,0.,12.0
1979-07-29 00:03:23.850 ,4,1,0.,12.0,0.,12.0,0.,12.0,0.,12.0
1979-07-29 00:03:35.850 ,4,0,0.,12.0,0.,12.0,0.,12.0,0.,12.0
1979-07-29 00:03:47.850 ,4,0,0.,12.0,0.,12.0,0.,12.0,0.,12.0
1979-07-29 00:03:59.850 ,5,1,0.,12.0,0.,12.0,0.,12.0,0.,12.0
1979-07-29 00:04:11.850 ,5,1,0.,12.0,0.,12.0,0.,12.0,0.,12.0
1979-07-29 00:04:23.850 ,5,0,0.,12.0,0.,12.0,0.,12.0,0.,12.0
1979-07-29 00:04:35.850 ,5,0,0.,12.0,0.,12.0,0.,12.0,0.,12.0
1979-07-29 00:04:47.850 ,6,1,0.,12.0,0.,12.0,0.,12.0,0.,12.0
1979-07-29 00:04:59.850 ,6,1,0.,12.0,0.,12.0,0.,12.0,0.,12.0
1979-07-29 00:05:11.850 ,6,0,0.,12.0,0.,12.0,0.,12.0,0.,12.0
1979-07-29 00:05:23.850 ,6,0,0.,12.0,0.,12.0,0.,12.0,0.,12.0
1979-07-29 00:05:35.850 ,7,1,0.,12.0,0.,12.0,0.,12.0,0.,12.0
1979-07-29 00:05:47.850 ,7,1,0.,12.0,0.,12.0,0.,12.0,0.,12.0
1979-07-29 00:05:59.850 ,7,0,0.,12.0,0.,12.0,0.,12.0,0.,12.0
1979-07-29 00:06:11.850 ,7,0,0.,12.0,0.,12.0,0.,12.0,0.,12.0
1979-07-29 00:06:23.850 ,7,1,0.,12.0,0.,12.0,0.,12.0,0.,12.0
1979-07-29 00:06:35.850 ,7,1,0.,12.0,0.,12.0,0.,12.0,0.,12.0
1979-07-29 00:06:47.850 ,7,0,0.,12.0,0.,12.0,0.,12.0,0.,12.0
1979-07-29 00:06:59.850 ,7,0,0.,12.0,0.,12.0,0.,12.0,0.,12.0
1979-07-29 00:07:11.850 ,6,1,0.,12.0,0.,12.0,0.,12.0,0.,12.0
1979-07-29 00:07:23.850 ,6,1,0.,12.0,0.,12.0,0.,12.0,0.,12.0
1979-07-29 00:07:35.850 ,6,0,0.,12.0,0.,12.0,0.,12.0,0.,12.0
1979-07-29 00:07:47.850 ,6,0,0.,12.0,0.,12.0,0.,12.0,0.,12.0
1979-07-29 00:07:59.850 ,5,1,0.,12.0,0.,12.0,0.,12.0,0.,12.0
1979-07-29 00:08:11.850 ,5,1,0.,12.0,0.,12.0,0.,12.0,0.,12.0
1979-07-29 00:08:23.850 ,5,0,0.,12.0,0.,12.0,0.,12.0,0.,12.0
1979-07-29 00:08:35.850 ,5,0,0.,12.0,0.,12.0,0.,12.0,0.,12.0
1979-07-29 00:08:47.850 ,4,1,1.,12.0,0.,12.0,0.,12.0,0.,12.0
1979-07-29 00:08:59.850 ,4,1,0.,12.0,0.,12.0,0.,12.0,0.,12.0
1979-07-29 00:09:11.850 ,4,0,0.,12.0,0.,12.0,0.,12.0,0.,12.0
1979-07-29 00:09:23.850 ,4,0,0.,12.0,0.,12.0,0.,12.0,0.,12.0
1979-07-29 00:09:35.850 ,3,1,0.,12.0,0.,12.0,0.,12.0,0.,12.0
1979-07-29 00:09:47.850 ,3,1,0.,12.0,0.,12.0,0.,12.0,0.,12.0
1979-07-29 00:09:59.850 ,3,0,0.,12.0,0.,12.0,0.,12.0,0.,12.0
1979-07-29 00:10:11.850 ,3,0,0.,12.0,0.,12.0,0.,12.0,0.,12.0
1979-07-29 00:10:23.850 ,2,1,0.,12.0,0.,12.0,0.,12.0,0.,12.0
1979-07-29 00:10:35.850 ,2,1,0.,12.0,0.,12.0,0.,12.0,0.,12.0
1979-07-29 00:10:47.850 ,2,0,0.,12.0,0.,12.0,0.,12.0,0.,12.0
1979-07-29 00:10:59.850 ,2,0,0.,12.0,0.,12.0,0.,12.0,0.,12.0
1979-07-29 00:11:11.850 ,1,1,0.,12.0,0.,12.0,0.,12.0,0.,12.0
1979-07-29 00:11:23.850 ,1,1,0.,12.0,0.,12.0,0.,12.0,0.,12.0
1979-07-29 00:11:35.850 ,1,0,0.,12.0,0.,12.0,0.,12.0,0.,12.0
1979-07-29 00:11:47.850 ,1,0,0.,12.0,0.,12.0,0.,12.0,0.,12.0
1979-07-29 00:11:59.850 ,0,1,0.,12.0,0.,12.0,0.,12.0,0.,12.0
1979-07-29 00:12:11.850 ,0,1,0.,12.0,0.,12.0,0.,12.0,0.,12.0
1979-07-29 00:12:23.850 ,0,0,0.,12.0,0.,12.0,0.,12.0,0.,12.0
1979-07-29 00:12:35.850 ,0,0,0.,12.0,0.,12.0,0.,12.0,0.,12.0
1979-07-29 00:12:47.850 ,0,1,0.,12.0,0.,12.0,0.,12.0,0.,12.0
1979-07-29 00:12:59.850 ,0,1,0.,12.0,0.,12.0,0.,12.0,0.,12.0
1979-07-29 00:13:11.850 ,0,0,0.,12.0,0.,12.0,0.,12.0,0.,12.0
1979-07-29 00:13:23.850 ,0,0,0.,12.0,0.,12.0,0.,12.0,0.,12.0
1979-07-29 00:13:35.850 ,0,0,0.,12.0,0.,12.0,0.,12.0,0.,12.0
1979-07-29 00:13:47.850 ,0,0,,0,,0,,0,,0
1979-07-29 00:13:59.850 ,0,0,,0,,0,,0,,0
1979-07-29 00:14:11.850 ,0,0,,0,,0,,0,,0
1979-07-29 00:20:14.850 ,0,0,,0,,0,,0,,0
1979-07-29 00:20:26.850 ,0,0,,0,,0,,0,,0
1979-07-29 00:20:23.850 ,7,1,0.,12.0,0.,12.0,0.,12.0,0.,12.0
1979-07-29 00:20:35.850 ,7,1,0.,12.0,0.,12.0,0.,12.0,0.,12.0
1979-07-29 00:20:47.850 ,4,1,0.,12.0,0.,12.0,0.,12.0,0.,12.0
1979-07-29 00:20:59.850 ,4,1,0.,12.0,0.,12.0,0.,12.0,0.,12.0
1979-07-29 00:21:11.850 ,0,1,0.,12.0,0.,12.0,0.,12.0,0.,12.0
1979-07-29 00:21:23.850 ,0,1,1.,12.0,0.,12.0,0.,12.0,0.,12.0
1979-07-29 00:21:35.850 ,0,0,0.,12.0,0.,12.0,0.,12.0,0.,12.0
1979-07-29 00:21:47.850 ,0,0,,0,,0,,0,,0
1979-07-29 00:21:59.850 ,0,0,,0,,0,,0,,0
1979-07-29 00:22:11.850 ,0,0,,0,,0,,0,,0
1979-07-29 00:23:18.450 ,0,0,,0,,0,,0,,0
1979-07-29 00:23:30.450 ,0,0,0.,12.0,0.,12.0,0.,12.0,0.,12.0
1979-07-29 00:23:35.850 ,7,1,0.,12.0,0.,12.0,0.,12.0,0.,12.0
1979-07-29 00:23:47.850 ,7,1,0.,12.0,0.,12.0,0.,12.0,0.,12.0
1979-07-29 00:23:59.850 ,4,1,0.,12.0,0.,12.0,0.,12.0,0.,12.0
1979-07-29 00:24:11.850 ,4,1,0.,12.0,0.,12.0,0.,12.0,0.,12.0
1979-07-29 00:24:23.850 ,0,1,0.,12.0,0.,12.0,0.,12.0,0.,12.0
1979-07-29 00:24:35.850 ,0,1,0.,12.0,0.,12.0,0.,12.0,0.,12.0
1979-07-29 00:24:47.850 ,3,1,0.,12.0,0.,12.0,0.,12.0,0.,12.0
1979-07-29 00:24:59.850 ,3,1,0.,12.0,0.,12.0,0.,12.0,0.,12.0
1979-07-29 00:25:11.850 ,7,1,0.,12.0,0.,12.0,0.,12.0,0.,12.0
1979-07-29 00:25:23.850 ,7,1,0.,12.0,0.,12.0,0.,12.0,0.,12.0
1979-07-29 00:25:35.850 ,4,1,0.,12.0,0.,12.0,0.,12.0,0.,12.0
1979-07-29 00:25:47.850 ,4,1,0.,12.0,0.,12.0,0.,12.0,0.,12.0
1979-07-29 00:25:59.850 ,0,1,0.,12.0,0.,12.0,0.,12.0,0.,12.0
1979-07-29 00:26:11.850 ,0,1,0.,12.0,0.,12.0,0.,12.0,0.,12.0
1979-07-29 00:26:23.850 ,3,1,1.,12.0,0.,12.0,0.,12.0,0.,12.0
1979-07-29 00:26:35.850 ,3,1,0.,12.0,0.,12.0,0.,12.0,0.,12.0
1979-07-29 00:26:47.850 ,7,1,0.,12.0,0.,12.0,0.,12.0,0.,12.0
1979-07-29 00:26:59.850 ,7,1,0.,12.0,0.,12.0,0.,12.0,0.,12.0
1979-07-29 00:27:11.850 ,4,1,0.,12.0,0.,12.0,0.,12.0,0.,12.0
1979-07-29 00:27:23.850 ,4,1,0.,12.0,0.,12.0,0.,12.0,0.,12.0
1979-07-29 00:27:35.850 ,0,1,0.,12.0,0.,12.0,0.,12.0,0.,12.0
1979-07-29 00:27:47.850 ,0,1,0.,12.0,0.,12.0,0.,12.0,0.,12.0
1979-07-29 00:27:59.850 ,3,1,0.,12.0,0.,12.0,0.,12.0,0.,12.0
1979-07-29 00:28:11.850 ,3,1,0.,12.0,0.,12.0,0.,12.0,0.,12.0
1979-07-29 00:28:23.850 ,7,1,0.,12.0,0.,12.0,0.,12.0,0.,12.0
1979-07-29 00:28:35.850 ,7,1,0.,12.0,0.,12.0,0.,12.0,0.,12.0
1979-07-29 00:28:47.850 ,0,0,0.,12.0,0.,12.0,0.,12.0,0.,12.0
1979-07-29 00:28:59.850 ,0,0,,0,,0,,0,,0
1979-07-29 00:29:11.850 ,0,0,,0,,0,,0,,0
1979-07-29 00:29:23.850 ,0,0,,0,,0,,0,,0
1979-07-29 00:30:29.850 ,0,0,,0,,0,,0,,0
1979-07-29 00:30:41.850 ,0,0,0.,12.0,0.,12.0,0.,12.0,0.,12.0
1979-07-29 00:30:47.850 ,0,0,0.,12.0,0.,12.0,0.,12.0,0.,12.0
1979-07-29 00:30:59.850 ,0,0,0.,12.0,0.,12.0,0.,12.0,0.,12.0
1979-07-29 00:31:11.850 ,4,1,0.,12.0,0.,12.0,0.,12.0,0.,12.0
1979-07-29 00:31:23.850 ,4,1,0.,12.0,0.,12.0,0.,12.0,0.,12.0
1979-07-29 00:31:35.850 ,4,0,0.,12.0,0.,12.0,0.,12.0,0.,12.0
1979-07-29 00:31:47.850 ,4,0,0.,12.0,0.,12.0,0.,12.0,0.,12.0
1979-07-29 00:31:59.850 ,3,1,0.,12.0,0.,12.0,0.,12.0,0.,12.0
1979-07-29 00:32:11.850 ,3,1,0.,12.0,0.,12.0,0.,12.0,0.,12.0
1979-07-29 00:32:23.850 ,0,0,,0,,0,,0,,0
1979-07-29 00:32:35.850 ,0,0,0.,12.0,0.,12.0,0.,12.0,0.,12.0
1979-07-29 00:32:47.850 ,2,1,0.,12.0,0.,12.0,0.,12.0,0.,12.0
1979-07-29 00:32:59.850 ,2,1,0.,12.0,0.,12.0,0.,12.0,0.,12.0
1979-07-29 00:33:11.850 ,0,0,0.,12.0,0.,12.0,0.,12.0,0.,12.0
1979-07-29 00:33:23.850 ,0,0,,0,,0,,0,,0
1979-07-29 00:33:35.850 ,0,0,0.,12.0,0.,12.0,0.,12.0,0.,12.0
1979-07-29 00:33:47.850 ,0,0,,0,,0,,0,,0
1979-07-29 00:33:59.850 ,0,0,,0,,0,,0,,0
1979-07-29 00:34:11.850 ,0,0,,0,,0,,0,,0
1979-07-29 00:34:23.850 ,0,1,0.,12.0,0.,12.0,0.,12.0,0.,12.0
1979-07-29 00:34:35.850 ,0,1,0.,12.0,0.,12.0,0.,12.0,0.,12.0
1979-07-29 00:34:47.850 ,0,1,0.,12.0,0.,12.0,0.,12.0,0.,12.0
1979-07-29 00:34:59.850 ,0,1,0.,12.0,0.,12.0,0.,12.0,0.,12.0
1979-07-29 00:35:11.850 ,0,1,,0,,0,,0,,0
1979-07-29 00:35:23.850 ,0,1,0.,12.0,0.,12.0,0.,12.0,0.,12.0
1979-07-29 00:35:35.850 ,0,0,0.,12.0,0.,12.0,0.,12.0,0.,12.0
1979-07-29 00:35:47.850 ,0,0,0.,12.0,0.,12.0,0.,12.0,0.,12.0
1979-07-29 00:35:59.850 ,0,0,0.,12.0,0.,12.0,0.,12.0,0.,12.0
1979-07-29 00:36:11.850 ,0,0,0.,12.0,0.,12.0,0.,12.0,0.,12.0
1979-07-29 00:36:23.850 ,0,0,0.,12.0,0.,12.0,0.,12.0,0.,12.0
1979-07-29 00:36:35.850 ,0,0,0.,12.0,0.,12.0,0.,12.0,0.,12.0
1979-07-29 00:36:47.850 ,2,1,0.,12.0,0.,12.0,0.,12.0,0.,12.0
1979-07-29 00:36:59.850 ,2,1,0.,12.0,0.,12.0,0.,12.0,0.,12.0
1979-07-29 00:37:11.850 ,2,0,,0,,0,,0,,0
1979-07-29 00:37:23.850 ,2,0,0.,12.0,0.,12.0,0.,12.0,0.,12.0
1979-07-29 00:37:35.850 ,0,0,0.,12.0,0.,12.0,0.,12.0,0.,12.0
1979-07-29 00:37:47.850 ,0,0,0.,12.0,0.,12.0,0.,12.0,0.,12.0
1979-07-29 00:37:59.850 ,0,0,0.,12.0,0.,12.0,0.,12.0,0.,12.0
1979-07-29 00:38:11.850 ,0,0,0.,12.0,0.,12.0,0.,12.0,0.,12.0
1979-07-29 00:38:23.850 ,0,0,0.,12.0,0.,12.0,0.,12.0,0.,12.0
1979-07-29 00:38:35.850 ,0,0,0.,12.0,0.,12.0,0.,12.0,0.,12.0
1979-07-29 00:38:47.850 ,0,0,0.,12.0,0.,12.0,0.,12.0,0.,12.0
1979-07-29 00:38:59.850 ,0,0,,0,,0,,0,,0
1979-07-29 00:39:11.850 ,0,0,0.,12.0,0.,12.0,0.,12.0,0.,12.0
1979-07-29 00:39:23.850 ,0,0,0.,12.0,0.,12.0,0.,12.0,0.,12.0
1979-07-29 00:39:35.850 ,0,0,,0,,0,,0,,0
1979-07-29 00:39:47.850 ,0,0,,0,,0,,0,,0
1979-07-29 00:40:55.050 ,0,0,,0,,0,,0,,0
1979-07-29 00:41:07.050 ,0,0,0.,12.0,0.,12.0,0.,12.0,0.,12.0
1979-07-29 00:41:11.850 ,0,0,,0,,0,,0,,0
1979-07-29 00:41:23.850 ,0,0,0.,12.0,0.,12.0,0.,12.0,0.,12.0
1979-07-29 00:41:35.850 ,7,1,0.,12.0,0.,12.0,0.,12.0,0.,12.0
1979-07-29 00:41:47.850 ,7,1,0.,12.0,0.,12.0,0.,12.0,0.,12.0
1979-07-29 00:41:59.850 ,7,0,0.,12.0,0.,12.0,0.,12.0,0.,12.0
1979-07-29 00:42:11.850 ,7,0,0.,12.0,0.,12.0,0.,12.0,0.,12.0
1979-07-29 00:42:23.850 ,6,1,0.,12.0,0.,12.0,0.,12.0,0.,12.0
1979-07-29 00:42:35.850 ,6,1,0.,12.0,0.,12.0,0.,12.0,0.,12.0
1979-07-29 00:42:47.850 ,6,0,0.,12.0,0.,12.0,0.,12.0,0.,12.0
1979-07-29 00:42:59.850 ,6,0,,0,,0,,0,,0
1979-07-29 00:43:11.850 ,6,0,0.,12.0,0.,12.0,0.,12.0,0.,12.0
1979-07-29 00:43:23.850 ,6,0,,0,,0,,0,,0
1979-07-29 00:43:35.850 ,5,0,0.,12.0,0.,12.0,0.,12.0,0.,12.0
1979-07-29 00:43:47.850 ,5,0,0.,12.0,0.,12.0,0.,12.0,0.,12.0
1979-07-29 00:43:59.850 ,4,1,0.,12.0,0.,12.0,0.,12.0,0.,12.0
1979-07-29 00:44:11.850 ,4,1,0.,12.0,0.,12.0,0.,12.0,0.,12.0
1979-07-29 00:44:23.850 ,4,0,0.,12.0,0.,12.0,0.,12.0,0.,12.0
1979-07-29 00:44:35.850 ,4,0,0.,12.0,0.,12.0,0.,12.0,0.,12.0
1979-07-29 00:44:47.850 ,3,1,0.,12.0,0.,12.0,0.,12.0,0.,12.0
1979-07-29 00:44:59.850 ,3,1,0.,12.0,0.,12.0,0.,12.0,0.,12.0
1979-07-29 00:45:11.850 ,3,0,0.,12.0,0.,12.0,0.,12.0,0.,12.0
1979-07-29 00:45:23.850 ,3,0,0.,12.0,0.,12.0,0.,12.0,0.,12.0
1979-07-29 00:45:35.850 ,0,0,0.,12.0,0.,12.0,0.,12.0,0.,12.0
1979-07-29 00:45:47.850 ,0,0,0.,12.0,0.,12.0,0.,12.0,0.,12.0
1979-07-29 00:45:59.850 ,0,0,1.,12.0,0.,12.0,0.,12.0,0.,12.0
1979-07-29 00:46:11.850 ,0,0,,0,,0,,0,,0
1979-07-29 00:46:23.850 ,0,0,0.,12.0,0.,12.0,0.,12.0,0.,12.0
1979-07-29 00:46:35.850 ,0,0,0.,12.0,0.,12.0,0.,12.0,0.,12.0
1979-07-29 00:46:47.850 ,0,0,0.,12.0,0.,12.0,0.,12.0,0.,12.0
1979-07-29 00:46:59.850 ,0,0,0.,12.0,0.,12.0,0.,12.0,0.,12.0
1979-07-29 00:47:11.850 ,0,1,0.,12.0,0.,12.0,0.,12.0,0.,12.0
1979-07-29 00:47:23.850 ,0,1,0.,12.0,0.,12.0,0.,12.0,0.,12.0
1979-07-29 00:47:35.850 ,0,1,1.,12.0,0.,12.0,0.,12.0,0.,12.0
1979-07-29 00:47:47.850 ,0,1,0.,12.0,0.,12.0,0.,12.0,0.,12.0
1979-07-29 00:47:59.850 ,0,0,0.,12.0,0.,12.0,0.,12.0,0.,12.0
1979-07-29 00:48:11.850 ,0,0,0.,12.0,0.,12.0,0.,12.0,0.,12.0
1979-07-29 00:48:23.850 ,0,0,,0,,0,,0,,0
1979-07-29 00:48:35.850 ,0,0,,0,,0,,0,,0
1979-07-29 00:50:03.450 ,0,0,,0,,0,,0,,0
1979-07-29 00:50:15.450 ,0,0,0.,12.0,0.,12.0,0.,12.0,0.,12.0
1979-07-29 00:50:23.850 ,3,1,0.,12.0,0.,12.0,0.,12.0,0.,12.0
1979-07-29 00:50:35.850 ,3,1,0.,12.0,0.,12.0,0.,12.0,0.,12.0
1979-07-29 00:50:47.850 ,0,0,,0,,0,,0,,0
1979-07-29 00:50:59.850 ,0,0,,0,,0,,0,,0
1979-07-29 00:51:28.650 ,0,0,,0,,0,,0,,0
1979-07-29 00:51:40.650 ,0,0,,0,,0,,0,,0
1979-07-29 00:51:35.850 ,0,0,0.,12.0,0.,12.0,0.,12.0,0.,12.0
1979-07-29 00:51:47.850 ,0,0,0.,12.0,0.,12.0,0.,12.0,0.,12.0
1979-07-29 00:51:59.850 ,5,1,0.,12.0,0.,12.0,0.,12.0,0.,12.0
1979-07-29 00:52:11.850 ,5,1,0.,12.0,0.,12.0,0.,12.0,0.,12.0
1979-07-29 00:52:23.850 ,5,0,0.,12.0,0.,12.0,0.,12.0,0.,12.0
1979-07-29 00:52:35.850 ,5,0,0.,12.0,0.,12.0,0.,12.0,0.,12.0
1979-07-29 00:52:47.850 ,6,1,0.,12.0,0.,12.0,0.,12.0,0.,12.0
1979-07-29 00:52:59.850 ,6,1,0.,12.0,0.,12.0,0.,12.0,0.,12.0
1979-07-29 00:53:11.850 ,6,0,0.,12.0,0.,12.0,0.,12.0,0.,12.0
1979-07-29 00:53:23.850 ,6,0,0.,12.0,0.,12.0,0.,12.0,0.,12.0
1979-07-29 00:53:35.850 ,7,1,0.,12.0,0.,12.0,0.,12.0,0.,12.0
1979-07-29 00:53:47.850 ,7,1,0.,12.0,0.,12.0,0.,12.0,0.,12.0
1979-07-29 00:53:59.850 ,7,0,0.,12.0,0.,12.0,0.,12.0,0.,12.0
1979-07-29 00:54:11.850 ,7,0,0.,12.0,0.,12.0,0.,12.0,0.,12.0
1979-07-29 00:54:23.840 ,7,1,0.,12.0,0.,12.0,0.,12.0,0.,12.0
1979-07-29 00:54:35.840 ,7,1,0.,12.0,0.,12.0,0.,12.0,0.,12.0
1979-07-29 00:54:47.840 ,7,0,0.,12.0,0.,12.0,0.,12.0,0.,12.0
1979-07-29 00:54:59.840 ,7,0,0.,12.0,0.,12.0,0.,12.0,0.,12.0
1979-07-29 00:55:11.840 ,6,1,0.,12.0,0.,12.0,0.,12.0,0.,12.0
1979-07-29 00:55:23.840 ,6,1,0.,12.0,0.,12.0,0.,12.0,0.,12.0
1979-07-29 00:55:35.840 ,6,0,0.,12.0,0.,12.0,0.,12.0,0.,12.0
1979-07-29 00:55:47.840 ,6,0,0.,12.0,0.,12.0,0.,12.0,0.,12.0
1979-07-29 00:55:59.840 ,5,1,0.,12.0,0.,12.0,0.,12.0,0.,12.0
1979-07-29 00:56:11.840 ,5,1,0.,12.0,0.,12.0,0.,12.0,0.,12.0
1979-07-29 00:56:23.840 ,5,0,0.,12.0,0.,12.0,0.,12.0,0.,12.0
1979-07-29 00:56:35.840 ,5,0,0.,12.0,0.,12.0,0.,12.0,0.,12.0
1979-07-29 00:56:47.840 ,4,1,0.,12.0,0.,12.0,0.,12.0,0.,12.0
1979-07-29 00:56:59.840 ,4,1,0.,12.0,0.,12.0,0.,12.0,0.,12.0
1979-07-29 00:57:11.840 ,4,0,0.,12.0,0.,12.0,0.,12.0,0.,12.0
1979-07-29 00:57:23.840 ,4,0,0.,12.0,0.,12.0,0.,12.0,0.,12.0
1979-07-29 00:57:35.840 ,3,1,0.,12.0,0.,12.0,0.,12.0,0.,12.0
1979-07-29 00:57:47.840 ,3,1,0.,12.0,0.,12.0,0.,12.0,0.,12.0
1979-07-29 00:57:59.840 ,3,0,0.,12.0,0.,12.0,0.,12.0,0.,12.0
1979-07-29 00:58:11.840 ,3,0,0.,12.0,0.,12.0,0.,12.0,0.,12.0
1979-07-29 00:58:23.840 ,2,1,0.,12.0,0.,12.0,0.,12.0,0.,12.0
1979-07-29 00:58:35.840 ,2,1,0.,12.0,0.,12.0,0.,12.0,0.,12.0
1979-07-29 00:58:47.840 ,2,0,0.,12.0,0.,12.0,0.,12.0,0.,12.0
1979-07-29 00:58:59.840 ,2,0,0.,12.0,0.,12.0,0.,12.0,0.,12.0
1979-07-29 00:59:11.840 ,1,1,0.,12.0,0.,12.0,0.,12.0,0.,12.0
1979-07-29 00:59:23.840 ,1,1,0.,12.0,0.,12.0,0.,12.0,0.,12.0
1979-07-29 00:59:35.840 ,1,0,0.,12.0,0.,12.0,0.,12.0,0.,12.0
1979-07-29 00:59:47.840 ,1,0,0.,12.0,0.,12.0,0.,12.0,0.,12.0
1979-07-29 00:59:59.840 ,0,1,0.,12.0,0.,12.0,0.,12.0,0.,12.0
1979-07-29 01:00:11.850 ,0,1,0.,12.0,0.,12.0,0.,12.0,0.,12.0
1979-07-29 01:00:23.850 ,0,0,0.,12.0,0.,12.0,0.,12.0,0.,12.0
1979-07-29 01:00:35.850 ,0,0,0.,12.0,0.,12.0,0.,12.0,0.,12.0
1979-07-29 01:00:47.850 ,0,1,0.,12.0,0.,12.0,0.,12.0,0.,12.0
1979-07-29 01:00:59.850 ,0,1,0.,12.0,0.,12.0,0.,12.0,0.,12.0
1979-07-29 01:01:11.850 ,0,0,0.,12.0,0.,12.0,0.,12.0,0.,12.0
1979-07-29 01:01:23.850 ,0,0,0.,12.0,0.,12.0,0.,12.0,0.,12.0
1979-07-29 01:01:35.840 ,1,1,0.,12.0,0.,12.0,0.,12.0,0.,12.0
1979-07-29 01:01:47.850 ,1,1,0.,12.0,0.,12.0,0.,12.0,0.,12.0
1979-07-29 01:01:59.840 ,1,0,0.,12.0,0.,12.0,0.,12.0,0.,12.0
1979-07-29 01:02:11.850 ,1,0,0.,12.0,0.,12.0,0.,12.0,0.,12.0
1979-07-29 01:02:23.850 ,2,1,0.,12.0,0.,12.0,0.,12.0,0.,12.0
1979-07-29 01:02:35.850 ,2,1,0.,12.0,0.,12.0,0.,12.0,0.,12.0
1979-07-29 01:02:47.850 ,2,0,0.,12.0,0.,12.0,0.,12.0,0.,12.0
1979-07-29 01:02:59.850 ,2,0,0.,12.0,0.,12.0,0.,12.0,0.,12.0
1979-07-29 01:03:11.850 ,3,1,0.,12.0,0.,12.0,0.,12.0,0.,12.0
1979-07-29 01:03:23.850 ,3,1,0.,12.0,0.,12.0,0.,12.0,0.,12.0
1979-07-29 01:03:35.850 ,3,0,0.,12.0,0.,12.0,0.,12.0,0.,12.0
1979-07-29 01:03:47.850 ,3,0,0.,12.0,0.,12.0,0.,12.0,0.,12.0
1979-07-29 01:03:59.850 ,4,1,0.,12.0,0.,12.0,0.,12.0,0.,12.0
1979-07-29 01:04:11.850 ,4,1,0.,12.0,0.,12.0,0.,12.0,0.,12.0
1979-07-29 01:04:23.850 ,4,0,0.,12.0,0.,12.0,0.,12.0,0.,12.0
1979-07-29 01:04:35.850 ,4,0,0.,12.0,0.,12.0,0.,12.0,0.,12.0
1979-07-29 01:04:47.850 ,5,1,0.,12.0,0.,12.0,0.,12.0,0.,12.0
1979-07-29 01:04:59.850 ,5,1,0.,12.0,0.,12.0,0.,12.0,0.,12.0
1979-07-29 01:05:11.850 ,5,0,0.,12.0,0.,12.0,0.,12.0,0.,12.0
1979-07-29 01:05:23.850 ,5,0,0.,12.0,0.,12.0,0.,12.0,0.,12.0
1979-07-29 01:05:35.850 ,6,1,0.,12.0,0.,12.0,0.,12.0,0.,12.0
1979-07-29 01:05:47.850 ,6,1,0.,12.0,0.,12.0,0.,12.0,0.,12.0
1979-07-29 01:05:59.850 ,6,0,0.,12.0,0.,12.0,0.,12.0,0.,12.0
1979-07-29 01:06:11.850 ,6,0,0.,12.0,0.,12.0,0.,12.0,0.,12.0
1979-07-29 01:06:23.850 ,7,0,0.,12.0,0.,12.0,0.,12.0,0.,12.0
1979-07-29 01:06:35.850 ,7,0,0.,12.0,0.,12.0,0.,12.0,0.,12.0
1979-07-29 01:06:47.850 ,7,0,0.,12.0,0.,12.0,0.,12.0,0.,12.0
1979-07-29 01:06:59.850 ,7,0,0.,12.0,0.,12.0,0.,12.0,0.,12.0
1979-07-29 01:07:11.850 ,4,1,0.,12.0,0.,12.0,0.,12.0,0.,12.0
1979-07-29 01:07:23.850 ,4,1,0.,12.0,0.,12.0,0.,12.0,0.,12.0
1979-07-29 01:07:35.850 ,0,1,0.,12.0,0.,12.0,0.,12.0,0.,12.0
1979-07-29 01:07:47.850 ,0,1,0.,12.0,0.,12.0,0.,12.0,0.,12.0
1979-07-29 01:07:59.850 ,3,1,0.,12.0,0.,12.0,0.,12.0,0.,12.0
1979-07-29 01:08:11.850 ,3,1,0.,12.0,0.,12.0,0.,12.0,0.,12.0
1979-07-29 01:08:23.850 ,7,1,0.,12.0,0.,12.0,0.,12.0,0.,12.0
1979-07-29 01:08:35.840 ,7,1,0.,12.0,0.,12.0,0.,12.0,0.,12.0
1979-07-29 01:08:47.850 ,4,1,0.,12.0,0.,12.0,0.,12.0,0.,12.0
1979-07-29 01:08:59.850 ,4,1,0.,12.0,0.,12.0,0.,12.0,0.,12.0
1979-07-29 01:09:11.850 ,0,1,0.,12.0,0.,12.0,0.,12.0,0.,12.0
1979-07-29 01:09:23.850 ,0,1,0.,12.0,0.,12.0,0.,12.0,0.,12.0
1979-07-29 01:09:35.850 ,3,1,0.,12.0,0.,12.0,0.,12.0,0.,12.0
1979-07-29 01:09:47.850 ,3,1,0.,12.0,0.,12.0,0.,12.0,0.,12.0
1979-07-29 01:09:59.850 ,7,1,0.,12.0,0.,12.0,0.,12.0,0.,12.0
1979-07-29 01:10:11.850 ,7,1,0.,12.0,0.,12.0,0.,12.0,0.,12.0
1979-07-29 01:10:23.850 ,4,1,0.,12.0,0.,12.0,0.,12.0,0.,12.0
1979-07-29 01:10:35.850 ,4,1,0.,12.0,0.,12.0,0.,12.0,0.,12.0
1979-07-29 01:10:47.850 ,0,1,0.,12.0,0.,12.0,0.,12.0,0.,12.0
1979-07-29 01:10:59.850 ,0,1,0.,12.0,0.,12.0,0.,12.0,0.,12.0
1979-07-29 01:11:11.850 ,3,1,0.,12.0,0.,12.0,0.,12.0,0.,12.0
1979-07-29 01:11:23.850 ,3,1,0.,12.0,0.,12.0,0.,12.0,0.,12.0
1979-07-29 01:11:35.850 ,7,1,0.,12.0,0.,12.0,0.,12.0,0.,12.0
1979-07-29 01:11:47.850 ,7,1,0.,12.0,0.,12.0,0.,12.0,0.,12.0
1979-07-29 01:11:59.850 ,4,1,0.,12.0,0.,12.0,0.,12.0,0.,12.0
1979-07-29 01:12:11.850 ,4,1,0.,12.0,0.,12.0,0.,12.0,0.,12.0
1979-07-29 01:12:23.850 ,0,1,0.,12.0,0.,12.0,0.,12.0,0.,12.0
1979-07-29 01:12:35.850 ,0,1,0.,12.0,0.,12.0,0.,12.0,0.,12.0
1979-07-29 01:12:47.850 ,3,1,0.,12.0,0.,12.0,0.,12.0,0.,12.0
1979-07-29 01:12:59.850 ,3,1,0.,12.0,0.,12.0,0.,12.0,0.,12.0
1979-07-29 01:13:11.850 ,5,1,0.,12.0,0.,12.0,0.,12.0,0.,12.0
1979-07-29 01:13:23.850 ,5,1,,0,,0,,0,,0
1979-07-29 01:13:35.840 ,4,1,0.,12.0,0.,12.0,0.,12.0,0.,12.0
1979-07-29 01:13:47.840 ,4,1,0.,12.0,0.,12.0,0.,12.0,0.,12.0
1979-07-29 01:13:59.840 ,0,1,0.,12.0,0.,12.0,0.,12.0,0.,12.0
1979-07-29 01:14:11.840 ,0,1,0.,12.0,0.,12.0,0.,12.0,0.,12.0
1979-07-29 01:14:23.840 ,3,1,0.,12.0,0.,12.0,0.,12.0,0.,12.0
1979-07-29 01:14:35.840 ,3,1,0.,12.0,0.,12.0,0.,12.0,0.,12.0
1979-07-29 01:14:47.840 ,7,1,0.,12.0,0.,12.0,0.,12.0,0.,12.0
1979-07-29 01:14:59.840 ,7,1,0.,12.0,0.,12.0,0.,12.0,0.,12.0
1979-07-29 01:15:11.840 ,4,1,0.,12.0,0.,12.0,0.,12.0,0.,12.0
1979-07-29 01:15:23.840 ,4,1,0.,12.0,0.,12.0,0.,12.0,0.,12.0
1979-07-29 01:15:35.840 ,0,1,0.,12.0,0.,12.0,0.,12.0,0.,12.0
1979-07-29 01:15:47.840 ,0,1,0.,12.0,0.,12.0,0.,12.0,0.,12.0
1979-07-29 01:15:59.840 ,3,1,0.,12.0,0.,12.0,0.,12.0,0.,12.0
1979-07-29 01:16:11.840 ,3,1,0.,12.0,0.,12.0,0.,12.0,0.,12.0
1979-07-29 01:16:23.840 ,7,1,0.,12.0,0.,12.0,0.,12.0,0.,12.0
1979-07-29 01:16:35.840 ,7,1,0.,12.0,0.,12.0,0.,12.0,0.,12.0
1979-07-29 01:16:47.840 ,4,1,0.,12.0,0.,12.0,0.,12.0,0.,12.0
1979-07-29 01:16:59.840 ,4,1,0.,12.0,0.,12.0,0.,12.0,0.,12.0
1979-07-29 01:17:11.840 ,0,1,0.,12.0,0.,12.0,0.,12.0,0.,12.0
1979-07-29 01:17:23.840 ,0,1,0.,12.0,0.,12.0,0.,12.0,0.,12.0
1979-07-29 01:17:35.840 ,0,0,0.,12.0,0.,12.0,0.,12.0,0.,12.0
1979-07-29 01:17:47.840 ,0,0,0.,12.0,0.,12.0,0.,12.0,0.,12.0
1979-07-29 01:17:59.840 ,0,0,0.,12.0,0.,12.0,0.,12.0,0.,12.0
1979-07-29 01:18:11.840 ,0,0,0.,12.0,0.,12.0,0.,12.0,0.,12.0
1979-07-29 01:18:23.840 ,5,1,0.,12.0,0.,12.0,0.,12.0,0.,12.0
1979-07-29 01:18:35.840 ,5,1,0.,12.0,0.,12.0,0.,12.0,0.,12.0
1979-07-29 01:18:47.840 ,5,0,0.,12.0,0.,12.0,0.,12.0,0.,12.0
1979-07-29 01:18:59.840 ,5,0,0.,12.0,0.,12.0,0.,12.0,0.,12.0
1979-07-29 01:19:11.840 ,4,1,0.,12.0,0.,12.0,0.,12.0,0.,12.0
1979-07-29 01:19:23.840 ,4,1,0.,12.0,0.,12.0,0.,12.0,0.,12.0
1979-07-29 01:19:35.840 ,4,0,0.,12.0,0.,12.0,0.,12.0,0.,12.0
1979-07-29 01:19:47.840 ,4,0,0.,12.0,0.,12.0,0.,12.0,0.,12.0
1979-07-29 01:19:59.840 ,3,1,0.,12.0,0.,12.0,0.,12.0,0.,12.0
1979-07-29 01:20:11.840 ,3,1,0.,12.0,0.,12.0,0.,12.0,0.,12.0
1979-07-29 01:20:23.840 ,3,0,0.,12.0,0.,12.0,0.,12.0,0.,12.0
1979-07-29 01:20:35.840 ,3,0,0.,12.0,0.,12.0,0.,12.0,0.,12.0
1979-07-29 01:20:47.840 ,2,1,0.,12.0,0.,12.0,0.,12.0,0.,12.0
1979-07-29 01:20:59.840 ,2,1,0.,12.0,0.,12.0,0.,12.0,0.,12.0
1979-07-29 01:21:11.840 ,2,0,0.,12.0,0.,12.0,0.,12.0,0.,12.0
1979-07-29 01:21:23.840 ,2,0,0.,12.0,0.,12.0,1.,12.0,0.,12.0
1979-07-29 01:21:35.840 ,1,1,0.,12.0,0.,12.0,0.,12.0,0.,12.0
1979-07-29 01:21:47.840 ,1,1,0.,12.0,0.,12.0,0.,12.0,0.,12.0
1979-07-29 01:21:59.840 ,1,0,0.,12.0,0.,12.0,0.,12.0,0.,12.0
1979-07-29 01:22:11.840 ,1,0,0.,12.0,0.,12.0,0.,12.0,0.,12.0
1979-07-29 01:22:23.840 ,0,1,0.,12.0,0.,12.0,0.,12.0,0.,12.0
1979-07-29 01:22:35.840 ,0,1,0.,12.0,0.,12.0,0.,12.0,0.,12.0
1979-07-29 01:22:47.840 ,0,0,0.,12.0,0.,12.0,0.,12.0,0.,12.0
1979-07-29 01:22:59.840 ,0,0,0.,12.0,0.,12.0,0.,12.0,0.,12.0
1979-07-29 01:23:11.840 ,0,1,0.,12.0,0.,12.0,0.,12.0,0.,12.0
1979-07-29 01:23:23.840 ,0,1,0.,12.0,0.,12.0,0.,12.0,0.,12.0
1979-07-29 01:23:35.840 ,0,0,0.,12.0,0.,12.0,0.,12.0,0.,12.0
1979-07-29 01:23:47.840 ,0,0,0.,12.0,0.,12.0,0.,12.0,0.,12.0
1979-07-29 01:23:59.840 ,1,1,0.,12.0,0.,12.0,0.,12.0,0.,12.0
1979-07-29 01:24:11.840 ,1,1,0.,12.0,0.,12.0,0.,12.0,0.,12.0
1979-07-29 01:24:23.840 ,1,0,0.,12.0,0.,12.0,0.,12.0,0.,12.0
1979-07-29 01:24:35.840 ,1,0,0.,12.0,0.,12.0,0.,12.0,0.,12.0
1979-07-29 01:24:47.840 ,2,1,0.,12.0,0.,12.0,0.,12.0,0.,12.0
1979-07-29 01:24:59.840 ,2,1,0.,12.0,0.,12.0,0.,12.0,0.,12.0
1979-07-29 01:25:11.840 ,2,0,0.,12.0,0.,12.0,0.,12.0,0.,12.0
1979-07-29 01:25:23.840 ,2,0,0.,12.0,0.,12.0,0.,12.0,0.,12.0
1979-07-29 01:25:35.840 ,3,1,0.,12.0,0.,12.0,0.,12.0,0.,12.0
1979-07-29 01:25:47.840 ,3,1,0.,12.0,0.,12.0,0.,12.0,0.,12.0
1979-07-29 01:25:59.840 ,3,0,0.,12.0,0.,12.0,0.,12.0,0.,12.0
1979-07-29 01:26:11.840 ,3,0,0.,12.0,0.,12.0,0.,12.0,0.,12.0
1979-07-29 01:26:23.840 ,4,1,0.,12.0,0.,12.0,0.,12.0,0.,12.0
1979-07-29 01:26:35.840 ,4,1,0.,12.0,0.,12.0,0.,12.0,0.,12.0
1979-07-29 01:26:47.840 ,4,0,0.,12.0,0.,12.0,0.,12.0,1.,12.0
1979-07-29 01:26:59.840 ,4,0,0.,12.0,0.,12.0,0.,12.0,0.,12.0
1979-07-29 01:27:11.840 ,5,1,0.,12.0,0.,12.0,0.,12.0,0.,12.0
1979-07-29 01:27:23.840 ,5,1,0.,12.0,0.,12.0,0.,12.0,0.,12.0
1979-07-29 01:27:35.840 ,5,0,0.,12.0,0.,12.0,0.,12.0,0.,12.0
1979-07-29 01:27:47.840 ,5,0,0.,12.0,0.,12.0,0.,12.0,0.,12.0
1979-07-29 01:27:59.840 ,6,1,0.,12.0,0.,12.0,0.,12.0,0.,12.0
1979-07-29 01:28:11.840 ,6,1,0.,12.0,0.,12.0,0.,12.0,0.,12.0
1979-07-29 01:28:23.840 ,6,0,0.,12.0,0.,12.0,0.,12.0,0.,12.0
1979-07-29 01:28:35.840 ,6,0,0.,12.0,0.,12.0,0.,12.0,0.,12.0
1979-07-29 01:28:47.840 ,7,1,0.,12.0,0.,12.0,0.,12.0,0.,12.0